EW5610 Weather Reports


Display with metric or nautical units.
time (UTC)temp
F
wind
direction
speed
MPH
gust
MPH
rain 1hr
in
rain 24hr
in
rain mn
in
humidity
%
barometer
mb
20260504221557 60 234 11.0 18.0 0.00 0.00 0.00 56 1007.5
20260504220048 61 223 10.0 21.0 0.00 0.00 0.00 54 1007.6
20260504214550 61 197 10.0 22.0 0.00 0.00 0.00 52 1007.6
20260504213051 61 211 14.0 25.0 0.00 0.00 0.00 51 1007.6
20260504211543 62 163 12.0 26.0 0.00 0.00 0.00 49 1007.3
20260504210053 64 193 9.0 23.0 0.00 0.00 0.00 46 1007.2
20260504204619 64 168 9.0 26.0 0.00 0.00 0.00 45 1007.3
20260504203040 64 182 12.0 22.0 0.00 0.00 0.00 44 1007.2
20260504201540 64 213 10.0 23.0 0.00 0.00 0.00 43 1007.3
20260504200041 64 203 11.0 21.0 0.00 0.00 0.00 43 1007.3
20260504194547 63 174 15.0 27.0 0.00 0.00 0.00 44 1007.6
20260504193036 64 212 11.0 27.0 0.00 0.00 0.00 42 1007.5
20260504191536 65 240 12.0 17.0 0.00 0.00 0.00 42 1007.3
20260504190040 64 164 8.0 22.0 0.00 0.00 0.00 43 1007.5
20260504184537 64 198 16.0 28.0 0.00 0.00 0.00 39 1007.8
20260504183034 65 202 10.0 20.0 0.00 0.00 0.00 36 1007.8
20260504181533 65 205 7.0 22.0 0.00 0.00 0.00 36 1007.8
20260504180032 65 145 14.0 25.0 0.00 0.00 0.00 35 1008.3
20260504174531 64 226 15.0 32.0 0.00 0.00 0.00 35 1009.2
20260504173030 64 227 12.0 26.0 0.00 0.00 0.00 34 1008.3
20260504171539 63 220 15.0 23.0 0.00 0.00 0.00 34 1008.4
20260504081527 43 279 0.0 0.0 0.00 0.00 0.00 70 1009.7
20260504050001 41 279 0.0 0.0 0.00 0.00 0.00 58 1009.4
20260504044500 41 279 0.0 0.0 0.00 0.00 0.00 58 1009.4
20260504043100 40 279 0.0 0.0 0.00 0.00 0.00 58 1009.4
20260504041558 40 279 0.0 0.0 0.00 0.00 0.00 59 1009.4
20260504040056 40 279 0.0 0.0 0.00 0.00 0.00 59 1009.3
20260504034613 40 279 0.0 0.0 0.00 0.00 0.00 59 1009.3
20260504033055 41 279 0.0 0.0 0.00 0.00 0.00 58 1009.3
20260504031555 41 279 0.0 0.0 0.00 0.00 0.00 57 1009.1
20260504030054 41 279 0.0 0.0 0.00 0.00 0.00 56 1009.1
20260504024554 41 279 0.0 0.0 0.00 0.00 0.00 55 1009.1
20260504023054 42 279 0.0 0.0 0.00 0.00 0.00 54 1009.0
20260504021554 43 279 0.0 0.0 0.00 0.00 0.00 53 1008.9
20260504020053 43 279 0.0 0.0 0.00 0.00 0.00 52 1008.9
20260504014603 44 279 0.0 0.0 0.00 0.00 0.00 51 1008.8
20260504013053 44 279 0.0 0.0 0.00 0.00 0.00 50 1008.8
20260504011557 44 279 0.0 0.0 0.00 0.00 0.00 49 1008.4
20260504010056 45 279 0.0 0.0 0.00 0.00 0.00 47 1008.3
20260504004549 46 279 0.0 0.0 0.00 0.00 0.00 46 1007.9
20260504003052 48 279 0.0 0.0 0.00 0.00 0.00 44 1007.8
20260504001548 49 279 0.0 0.0 0.00 0.00 0.00 40 1007.6
20260504000049 51 279 0.0 0.0 0.00 0.00 0.00 37 1007.4
20260503234550 52 279 0.0 2.0 0.00 0.00 0.00 36 1007.3
20260503233046 53 279 0.0 5.0 0.00 0.00 0.00 35 1007.3
20260503231546 54 279 4.0 11.0 0.00 0.00 0.00 33 1007.2
20260503230050 54 286 4.0 10.0 0.00 0.00 0.00 33 1007.2
20260503224545 54 284 3.0 9.0 0.00 0.00 0.00 34 1006.9
20260503223044 54 290 2.0 12.0 0.00 0.00 0.00 33 1006.8